Time,TemperatureF,DewpointF,PressureIn,WindDirection,WindDirectionDegrees,WindSpeedMPH,WindSpeedGustMPH,Humidity,HourlyPrecipIn,Conditions,Clouds,dailyrainin,SoftwareType,DateUTC
2013-08-17 00:03:00,65.6,63.5,30.07,NNW,342,0.0,2.0,93,0.00,,,0.00,Wunderground v.1.15,2013-08-17 05:03:00,
2013-08-17 00:08:00,65.4,63.6,30.07,NNW,342,0.0,2.0,94,0.00,,,0.00,Wunderground v.1.15,2013-08-17 05:08:00,
2013-08-17 00:14:00,65.3,63.5,30.07,NNW,342,0.0,2.0,94,0.00,,,0.00,Wunderground v.1.15,2013-08-17 05:14:00,
2013-08-17 00:19:00,65.4,63.6,30.07,NNW,342,0.0,2.0,94,0.00,,,0.00,Wunderground v.1.15,2013-08-17 05:19:00,
2013-08-17 00:25:00,65.4,63.6,30.07,NNW,342,0.0,2.0,94,0.00,,,0.00,Wunderground v.1.15,2013-08-17 05:25:00,
2013-08-17 00:30:00,65.4,63.6,30.07,NNW,342,0.0,2.0,94,0.00,,,0.00,Wunderground v.1.15,2013-08-17 05:30:00,
2013-08-17 00:35:00,65.4,63.6,30.08,NNW,342,0.0,2.0,94,0.00,,,0.00,Wunderground v.1.15,2013-08-17 05:35:00,
2013-08-17 00:40:00,65.5,63.7,30.08,NNW,342,0.0,2.0,94,0.00,,,0.00,Wunderground v.1.15,2013-08-17 05:40:00,
2013-08-17 00:46:00,65.5,63.7,30.08,NNW,342,0.0,2.0,94,0.00,,,0.00,Wunderground v.1.15,2013-08-17 05:46:00,
2013-08-17 00:51:00,65.6,63.8,30.08,NNW,342,0.0,2.0,94,0.00,,,0.00,Wunderground v.1.15,2013-08-17 05:51:00,
2013-08-17 00:57:00,65.5,63.7,30.07,NNW,342,0.0,2.0,94,0.00,,,0.00,Wunderground v.1.15,2013-08-17 05:57:00,
2013-08-17 01:03:00,65.5,63.7,30.07,NNW,342,0.0,2.0,94,0.00,,,0.00,Wunderground v.1.15,2013-08-17 06:03:00,
2013-08-17 01:08:00,65.5,63.7,30.07,NNW,342,0.0,2.0,94,0.00,,,0.00,Wunderground v.1.15,2013-08-17 06:08:00,
2013-08-17 01:13:00,65.5,63.7,30.07,NNW,342,0.0,2.0,94,0.00,,,0.00,Wunderground v.1.15,2013-08-17 06:13:00,
2013-08-17 01:18:00,65.5,63.7,30.07,NNW,342,0.0,2.0,94,0.00,,,0.00,Wunderground v.1.15,2013-08-17 06:18:00,
2013-08-17 01:24:00,65.5,63.7,30.07,NNW,342,0.0,2.0,94,0.00,,,0.00,Wunderground v.1.15,2013-08-17 06:24:00,
2013-08-17 01:29:00,65.4,63.9,30.07,WNW,285,0.0,2.0,95,0.00,,,0.00,Wunderground v.1.15,2013-08-17 06:29:00,
2013-08-17 01:34:00,65.3,63.8,30.07,WNW,285,0.0,2.0,95,0.00,,,0.00,Wunderground v.1.15,2013-08-17 06:34:00,
2013-08-17 01:40:00,65.4,63.9,30.07,WNW,285,0.0,2.0,95,0.00,,,0.00,Wunderground v.1.15,2013-08-17 06:40:00,
2013-08-17 01:45:00,65.4,63.9,30.07,WNW,285,0.0,2.0,95,0.00,,,0.00,Wunderground v.1.15,2013-08-17 06:45:00,
2013-08-17 01:50:00,65.5,64.0,30.07,WNW,285,0.0,2.0,95,0.00,,,0.00,Wunderground v.1.15,2013-08-17 06:50:00,
2013-08-17 01:55:00,65.4,63.9,30.07,WNW,285,0.0,2.0,95,0.00,,,0.00,Wunderground v.1.15,2013-08-17 06:55:00,
2013-08-17 02:01:00,65.5,64.0,30.07,WNW,285,0.0,2.0,95,0.00,,,0.00,Wunderground v.1.15,2013-08-17 07:01:00,
2013-08-17 02:06:00,65.5,64.0,30.07,WNW,285,0.0,2.0,95,0.00,,,0.00,Wunderground v.1.15,2013-08-17 07:06:00,
2013-08-17 02:11:00,65.4,63.6,30.07,WNW,285,0.0,2.0,94,0.00,,,0.00,Wunderground v.1.15,2013-08-17 07:11:00,
2013-08-17 02:17:00,65.4,63.6,30.07,WNW,285,0.0,2.0,94,0.00,,,0.00,Wunderground v.1.15,2013-08-17 07:17:00,
2013-08-17 02:22:00,65.4,63.9,30.07,WNW,285,0.0,2.0,95,0.00,,,0.00,Wunderground v.1.15,2013-08-17 07:22:00,
2013-08-17 02:27:00,65.3,63.5,30.06,WNW,285,0.0,2.0,94,0.00,,,0.00,Wunderground v.1.15,2013-08-17 07:27:00,
2013-08-17 02:33:00,65.2,63.4,30.06,WNW,285,0.0,2.0,94,0.00,,,0.00,Wunderground v.1.15,2013-08-17 07:33:00,
2013-08-17 02:38:00,65.3,63.2,30.06,WNW,285,0.0,2.0,93,0.00,,,0.00,Wunderground v.1.15,2013-08-17 07:38:00,
2013-08-17 02:43:00,65.4,63.3,30.06,WNW,285,0.0,2.0,93,0.00,,,0.00,Wunderground v.1.15,2013-08-17 07:43:00,
2013-08-17 02:49:00,65.4,63.3,30.06,WNW,285,0.0,2.0,93,0.00,,,0.00,Wunderground v.1.15,2013-08-17 07:49:00,
2013-08-17 02:54:00,65.4,63.3,30.06,WNW,285,0.0,2.0,93,0.00,,,0.00,Wunderground v.1.15,2013-08-17 07:54:00,
2013-08-17 02:59:00,65.4,63.3,30.06,WNW,285,0.0,2.0,93,0.00,,,0.00,Wunderground v.1.15,2013-08-17 07:59:00,
2013-08-17 03:04:00,65.4,63.3,30.06,WNW,285,0.0,2.0,93,0.00,,,0.00,Wunderground v.1.15,2013-08-17 08:04:00,
2013-08-17 03:10:00,65.3,63.2,30.06,WNW,285,0.0,2.0,93,0.00,,,0.00,Wunderground v.1.15,2013-08-17 08:10:00,
2013-08-17 03:15:00,65.3,63.2,30.06,WNW,285,0.0,2.0,93,0.00,,,0.00,Wunderground v.1.15,2013-08-17 08:15:00,
2013-08-17 03:20:00,65.3,63.5,30.05,WNW,285,0.0,2.0,94,0.00,,,0.00,Wunderground v.1.15,2013-08-17 08:20:00,
2013-08-17 03:26:00,65.2,63.4,30.05,WNW,285,0.0,2.0,94,0.00,,,0.00,Wunderground v.1.15,2013-08-17 08:26:00,
2013-08-17 03:31:00,65.1,63.0,30.05,WNW,285,0.0,2.0,93,0.00,,,0.00,Wunderground v.1.15,2013-08-17 08:31:00,
2013-08-17 03:36:00,65.0,63.2,30.05,WNW,285,0.0,2.0,94,0.00,,,0.00,Wunderground v.1.15,2013-08-17 08:36:00,
2013-08-17 03:42:00,64.9,63.1,30.05,WNW,282,0.0,2.0,94,0.00,,,0.00,Wunderground v.1.15,2013-08-17 08:42:00,
2013-08-17 03:47:00,64.8,63.0,30.05,WNW,283,0.0,2.0,94,0.00,,,0.00,Wunderground v.1.15,2013-08-17 08:47:00,
2013-08-17 03:53:00,64.7,63.2,30.05,WNW,282,0.0,2.0,95,0.00,,,0.00,Wunderground v.1.15,2013-08-17 08:53:00,
2013-08-17 03:58:00,64.6,63.1,30.05,WNW,282,0.0,2.0,95,0.00,,,0.00,Wunderground v.1.15,2013-08-17 08:58:00,
2013-08-17 04:03:00,64.6,63.1,30.05,WNW,282,0.0,2.0,95,0.00,,,0.00,Wunderground v.1.15,2013-08-17 09:03:00,
2013-08-17 04:08:00,64.5,63.3,30.05,WNW,282,0.0,2.0,96,0.00,,,0.00,Wunderground v.1.15,2013-08-17 09:08:00,
2013-08-17 04:14:00,64.6,63.4,30.05,West,275,0.0,2.0,96,0.00,,,0.00,Wunderground v.1.15,2013-08-17 09:14:00,
2013-08-17 04:19:00,64.6,63.4,30.05,West,275,0.0,2.0,96,0.00,,,0.00,Wunderground v.1.15,2013-08-17 09:19:00,
2013-08-17 04:24:00,64.7,63.5,30.05,West,275,0.0,2.0,96,0.00,,,0.00,Wunderground v.1.15,2013-08-17 09:24:00,
2013-08-17 04:30:00,64.8,63.6,30.05,West,273,0.0,2.0,96,0.00,,,0.00,Wunderground v.1.15,2013-08-17 09:30:00,
2013-08-17 04:35:00,64.8,63.6,30.05,West,273,0.0,2.0,96,0.00,,,0.00,Wunderground v.1.15,2013-08-17 09:35:00,
2013-08-17 04:40:00,64.8,63.6,30.05,West,273,0.0,2.0,96,0.00,,,0.00,Wunderground v.1.15,2013-08-17 09:40:00,
2013-08-17 04:46:00,64.7,63.5,30.05,West,274,0.0,2.0,96,0.00,,,0.00,Wunderground v.1.15,2013-08-17 09:46:00,
2013-08-17 04:51:00,64.7,63.5,30.06,West,259,0.0,2.0,96,0.00,,,0.00,Wunderground v.1.15,2013-08-17 09:51:00,
2013-08-17 04:56:00,64.7,63.5,30.05,WSW,257,0.0,2.0,96,0.00,,,0.00,Wunderground v.1.15,2013-08-17 09:56:00,
2013-08-17 05:01:00,64.7,63.5,30.05,WSW,257,0.0,2.0,96,0.00,,,0.00,Wunderground v.1.15,2013-08-17 10:01:00,
2013-08-17 05:07:00,64.8,63.6,30.05,WSW,257,0.0,2.0,96,0.00,,,0.00,Wunderground v.1.15,2013-08-17 10:07:00,
2013-08-17 05:12:00,64.7,63.5,30.05,WSW,257,0.0,2.0,96,0.00,,,0.00,Wunderground v.1.15,2013-08-17 10:12:00,
2013-08-17 05:17:00,64.7,63.5,30.05,WSW,257,0.0,2.0,96,0.00,,,0.00,Wunderground v.1.15,2013-08-17 10:17:00,
2013-08-17 05:23:00,64.7,63.5,30.06,WSW,258,0.0,2.0,96,0.00,,,0.00,Wunderground v.1.15,2013-08-17 10:23:00,
2013-08-17 05:28:00,64.7,63.5,30.06,WSW,258,0.0,2.0,96,0.00,,,0.00,Wunderground v.1.15,2013-08-17 10:28:00,
2013-08-17 05:33:00,64.8,63.6,30.06,WSW,258,0.0,2.0,96,0.00,,,0.00,Wunderground v.1.15,2013-08-17 10:33:00,
2013-08-17 05:39:00,64.8,63.6,30.06,WSW,257,0.0,2.0,96,0.00,,,0.00,Wunderground v.1.15,2013-08-17 10:39:00,
2013-08-17 05:44:00,64.8,63.6,30.07,WSW,257,0.0,2.0,96,0.00,,,0.00,Wunderground v.1.15,2013-08-17 10:44:00,
2013-08-17 05:49:00,64.7,63.5,30.07,WSW,257,0.0,2.0,96,0.00,,,0.00,Wunderground v.1.15,2013-08-17 10:49:00,
2013-08-17 05:54:00,64.8,63.6,30.07,WSW,257,0.0,2.0,96,0.00,,,0.00,Wunderground v.1.15,2013-08-17 10:54:00,
2013-08-17 06:00:00,64.8,63.6,30.07,WSW,258,0.0,2.0,96,0.00,,,0.00,Wunderground v.1.15,2013-08-17 11:00:00,
2013-08-17 06:05:00,64.9,63.7,30.07,WSW,256,0.0,2.0,96,0.00,,,0.00,Wunderground v.1.15,2013-08-17 11:05:00,
2013-08-17 06:10:00,64.9,63.7,30.07,WSW,256,0.0,2.0,96,0.00,,,0.00,Wunderground v.1.15,2013-08-17 11:10:00,
2013-08-17 06:16:00,64.9,63.7,30.07,WSW,256,0.0,2.0,96,0.00,,,0.00,Wunderground v.1.15,2013-08-17 11:16:00,
2013-08-17 06:21:00,64.8,63.6,30.07,WSW,256,0.0,2.0,96,0.00,,,0.00,Wunderground v.1.15,2013-08-17 11:21:00,
2013-08-17 06:26:00,64.8,63.6,30.07,WSW,256,0.0,2.0,96,0.00,,,0.00,Wunderground v.1.15,2013-08-17 11:26:00,
2013-08-17 06:32:00,64.9,63.7,30.07,WSW,257,0.0,2.0,96,0.00,,,0.00,Wunderground v.1.15,2013-08-17 11:32:00,
2013-08-17 06:37:00,64.9,63.7,30.07,WSW,257,0.0,2.0,96,0.00,,,0.00,Wunderground v.1.15,2013-08-17 11:37:00,
2013-08-17 06:42:00,64.9,63.7,30.07,WSW,257,0.0,2.0,96,0.00,,,0.00,Wunderground v.1.15,2013-08-17 11:42:00,
2013-08-17 06:47:00,65.0,63.8,30.08,WSW,244,0.0,2.0,96,0.00,,,0.00,Wunderground v.1.15,2013-08-17 11:47:00,
2013-08-17 06:53:00,65.1,63.9,30.08,ESE,120,0.0,2.0,96,0.00,,,0.00,Wunderground v.1.15,2013-08-17 11:53:00,
2013-08-17 06:58:00,65.2,64.0,30.08,ESE,119,0.0,2.0,96,0.00,,,0.00,Wunderground v.1.15,2013-08-17 11:58:00,
2013-08-17 07:03:00,65.2,64.0,30.08,East,100,0.0,2.0,96,0.00,,,0.00,Wunderground v.1.15,2013-08-17 12:03:00,
2013-08-17 07:07:00,65.3,64.1,30.08,East,100,0.0,2.0,96,0.00,,,0.00,Wunderground v.1.15,2013-08-17 12:07:00,
2013-08-17 07:12:00,65.4,63.9,30.08,East,100,0.0,2.0,95,0.00,,,0.00,Wunderground v.1.15,2013-08-17 12:12:00,
2013-08-17 07:17:00,65.4,63.9,30.08,East,100,0.0,2.0,95,0.00,,,0.00,Wunderground v.1.15,2013-08-17 12:17:00,
2013-08-17 07:23:00,65.5,64.0,30.09,East,100,0.0,2.0,95,0.00,,,0.00,Wunderground v.1.15,2013-08-17 12:23:00,
2013-08-17 07:28:00,65.6,64.1,30.09,North,6,0.0,2.0,95,0.00,,,0.00,Wunderground v.1.15,2013-08-17 12:28:00,
2013-08-17 07:33:00,65.7,64.2,30.09,North,6,0.0,2.0,95,0.00,,,0.00,Wunderground v.1.15,2013-08-17 12:33:00,
2013-08-17 07:38:00,65.7,64.2,30.09,North,6,0.0,2.0,95,0.00,,,0.00,Wunderground v.1.15,2013-08-17 12:38:00,
2013-08-17 07:44:00,65.8,64.3,30.09,North,7,0.0,2.0,95,0.00,,,0.00,Wunderground v.1.15,2013-08-17 12:44:00,
2013-08-17 07:49:00,65.8,64.3,30.09,North,6,0.0,2.0,95,0.00,,,0.00,Wunderground v.1.15,2013-08-17 12:49:00,
2013-08-17 07:54:00,65.8,64.3,30.09,North,6,0.0,2.0,95,0.00,,,0.00,Wunderground v.1.15,2013-08-17 12:54:00,
2013-08-17 08:00:00,65.9,64.7,30.09,North,6,0.0,2.0,96,0.00,,,0.00,Wunderground v.1.15,2013-08-17 13:00:00,
2013-08-17 08:05:00,66.0,64.8,30.09,SW,223,0.0,2.0,96,0.00,,,0.00,Wunderground v.1.15,2013-08-17 13:05:00,
2013-08-17 08:10:00,66.1,64.9,30.09,SW,223,0.0,2.0,96,0.00,,,0.00,Wunderground v.1.15,2013-08-17 13:10:00,
2013-08-17 08:16:00,66.2,64.7,30.09,SW,225,0.0,2.0,95,0.00,,,0.00,Wunderground v.1.15,2013-08-17 13:16:00,
2013-08-17 08:21:00,66.3,64.8,30.09,SW,225,0.0,2.0,95,0.00,,,0.00,Wunderground v.1.15,2013-08-17 13:21:00,
2013-08-17 08:26:00,66.4,64.9,30.09,SW,224,0.0,2.0,95,0.00,,,0.00,Wunderground v.1.15,2013-08-17 13:26:00,
2013-08-17 08:31:00,66.5,65.0,30.09,SW,224,0.0,2.0,95,0.00,,,0.00,Wunderground v.1.15,2013-08-17 13:31:00,
2013-08-17 08:37:00,66.6,65.1,30.09,SW,224,0.0,2.0,95,0.00,,,0.00,Wunderground v.1.15,2013-08-17 13:37:00,
2013-08-17 08:42:00,66.6,65.1,30.09,SW,225,0.0,2.0,95,0.00,,,0.00,Wunderground v.1.15,2013-08-17 13:42:00,
2013-08-17 08:47:00,66.7,64.9,30.09,SW,224,0.0,2.0,94,0.00,,,0.00,Wunderground v.1.15,2013-08-17 13:47:00,
2013-08-17 08:53:00,66.7,64.9,30.10,SW,224,0.0,2.0,94,0.00,,,0.00,Wunderground v.1.15,2013-08-17 13:53:00,
2013-08-17 08:58:00,66.9,65.1,30.10,SW,224,0.0,2.0,94,0.00,,,0.00,Wunderground v.1.15,2013-08-17 13:58:00,
2013-08-17 09:03:00,66.9,65.1,30.10,SW,224,0.0,2.0,94,0.00,,,0.00,Wunderground v.1.15,2013-08-17 14:03:00,
2013-08-17 09:08:00,67.1,65.3,30.10,South,171,0.0,2.0,94,0.00,,,0.00,Wunderground v.1.15,2013-08-17 14:08:00,
2013-08-17 09:14:00,67.3,65.5,30.10,South,171,0.0,2.0,94,0.00,,,0.00,Wunderground v.1.15,2013-08-17 14:14:00,
2013-08-17 09:19:00,67.4,65.3,30.10,ESE,121,0.0,2.0,93,0.00,,,0.00,Wunderground v.1.15,2013-08-17 14:19:00,
2013-08-17 09:24:00,67.5,65.1,30.10,ESE,122,0.0,2.0,92,0.00,,,0.00,Wunderground v.1.15,2013-08-17 14:24:00,
2013-08-17 09:30:00,67.7,65.3,30.10,ESE,122,0.0,2.0,92,0.00,,,0.00,Wunderground v.1.15,2013-08-17 14:30:00,
2013-08-17 09:35:00,67.9,65.5,30.10,ESE,122,0.0,2.0,92,0.00,,,0.00,Wunderground v.1.15,2013-08-17 14:35:00,
2013-08-17 09:40:00,68.1,65.4,30.10,ESE,122,0.0,2.0,91,0.00,,,0.00,Wunderground v.1.15,2013-08-17 14:40:00,
2013-08-17 09:46:00,68.4,65.4,30.10,SSE,150,0.0,2.0,90,0.00,,,0.00,Wunderground v.1.15,2013-08-17 14:46:00,
2013-08-17 09:51:00,68.6,65.9,30.11,SSE,150,0.0,2.0,91,0.00,,,0.00,Wunderground v.1.15,2013-08-17 14:51:00,
2013-08-17 09:56:00,68.7,66.0,30.11,SSE,150,0.0,2.0,91,0.00,,,0.00,Wunderground v.1.15,2013-08-17 14:56:00,
2013-08-17 10:01:00,68.9,66.2,30.11,SSE,166,0.0,2.0,91,0.00,,,0.00,Wunderground v.1.15,2013-08-17 15:01:00,
2013-08-17 10:07:00,69.2,66.1,30.11,SSE,166,0.0,2.0,90,0.00,,,0.00,Wunderground v.1.15,2013-08-17 15:07:00,
2013-08-17 10:13:00,69.6,65.9,30.11,SSE,157,0.0,2.0,88,0.00,,,0.00,Wunderground v.1.15,2013-08-17 15:13:00,
2013-08-17 10:18:00,69.8,66.1,30.11,SW,224,0.0,2.0,88,0.00,,,0.00,Wunderground v.1.15,2013-08-17 15:18:00,
2013-08-17 10:25:00,70.0,66.0,30.10,SW,224,0.0,2.0,87,0.00,,,0.00,Wunderground v.1.15,2013-08-17 15:25:00,
2013-08-17 10:31:00,70.6,66.5,30.10,ESE,116,0.0,2.0,87,0.00,,,0.00,Wunderground v.1.15,2013-08-17 15:31:00,
2013-08-17 10:36:00,71.0,66.3,30.10,SW,233,0.0,2.0,85,0.00,,,0.00,Wunderground v.1.15,2013-08-17 15:36:00,
2013-08-17 10:41:00,71.3,66.2,30.10,ESE,117,0.0,2.0,84,0.00,,,0.00,Wunderground v.1.15,2013-08-17 15:41:00,
2013-08-17 10:47:00,71.4,65.6,30.10,SW,216,0.0,2.0,82,0.00,,,0.00,Wunderground v.1.15,2013-08-17 15:47:00,
2013-08-17 10:52:00,71.1,66.4,30.10,WSW,245,0.0,2.0,85,0.00,,,0.00,Wunderground v.1.15,2013-08-17 15:52:00,
2013-08-17 10:57:00,71.2,66.5,30.10,WSW,248,0.0,2.0,85,0.00,,,0.00,Wunderground v.1.15,2013-08-17 15:57:00,
2013-08-17 11:03:00,71.6,66.2,30.10,ESE,114,0.0,2.0,83,0.00,,,0.00,Wunderground v.1.15,2013-08-17 16:03:00,
2013-08-17 11:08:00,71.6,66.2,30.10,SW,235,1.0,2.0,83,0.00,,,0.00,Wunderground v.1.15,2013-08-17 16:08:00,
2013-08-17 11:13:00,71.5,65.7,30.10,SSW,193,1.0,2.0,82,0.00,,,0.00,Wunderground v.1.15,2013-08-17 16:13:00,
2013-08-17 11:18:00,71.8,66.0,30.09,South,185,0.0,2.0,82,0.00,,,0.00,Wunderground v.1.15,2013-08-17 16:18:00,
2013-08-17 11:24:00,71.9,65.8,30.10,ESE,105,0.0,2.0,81,0.00,,,0.00,Wunderground v.1.15,2013-08-17 16:24:00,
2013-08-17 11:30:00,72.1,65.6,30.09,WSW,246,0.0,2.0,80,0.00,,,0.00,Wunderground v.1.15,2013-08-17 16:30:00,
2013-08-17 11:35:00,72.0,65.5,30.09,WSW,241,0.0,2.0,80,0.00,,,0.00,Wunderground v.1.15,2013-08-17 16:35:00,
2013-08-17 11:41:00,72.2,66.4,30.09,WSW,241,0.0,2.0,82,0.00,,,0.00,Wunderground v.1.15,2013-08-17 16:41:00,
2013-08-17 11:46:00,72.5,65.6,30.09,SE,128,0.0,2.0,79,0.00,,,0.00,Wunderground v.1.15,2013-08-17 16:46:00,
2013-08-17 11:52:00,72.6,65.3,30.09,SW,228,0.0,2.0,78,0.00,,,0.00,Wunderground v.1.15,2013-08-17 16:52:00,
2013-08-17 11:58:00,72.4,65.2,30.09,WSW,238,1.0,2.0,78,0.00,,,0.00,Wunderground v.1.15,2013-08-17 16:58:00,
2013-08-17 12:04:00,72.7,66.2,30.08,WSW,239,0.0,2.0,80,0.00,,,0.00,Wunderground v.1.15,2013-08-17 17:04:00,
2013-08-17 12:09:00,72.8,66.3,30.08,WSW,237,0.0,2.0,80,0.00,,,0.00,Wunderground v.1.15,2013-08-17 17:09:00,
2013-08-17 12:14:00,73.0,66.5,30.08,SW,225,0.0,2.0,80,0.00,,,0.00,Wunderground v.1.15,2013-08-17 17:14:00,
2013-08-17 12:20:00,73.3,66.4,30.08,WSW,240,0.0,2.0,79,0.00,,,0.00,Wunderground v.1.15,2013-08-17 17:20:00,
2013-08-17 12:25:00,73.2,65.9,30.08,WSW,243,0.0,2.0,78,0.00,,,0.00,Wunderground v.1.15,2013-08-17 17:25:00,
2013-08-17 12:31:00,73.3,66.4,30.08,ESE,112,0.0,2.0,79,0.00,,,0.00,Wunderground v.1.15,2013-08-17 17:31:00,
2013-08-17 12:37:00,73.4,66.9,30.08,ESE,112,0.0,2.0,80,0.00,,,0.00,Wunderground v.1.15,2013-08-17 17:37:00,
2013-08-17 12:42:00,73.5,66.2,30.08,ESE,117,0.0,2.0,78,0.00,,,0.00,Wunderground v.1.15,2013-08-17 17:42:00,
2013-08-17 12:47:00,73.3,66.0,30.08,South,183,0.0,2.0,78,0.00,,,0.00,Wunderground v.1.15,2013-08-17 17:47:00,
2013-08-17 12:52:00,73.3,66.4,30.07,South,182,0.0,2.0,79,0.00,,,0.00,Wunderground v.1.15,2013-08-17 17:52:00,
2013-08-17 12:58:00,73.3,66.4,30.08,South,182,0.0,2.0,79,0.00,,,0.00,Wunderground v.1.15,2013-08-17 17:58:00,
2013-08-17 13:03:00,73.2,65.6,30.07,South,183,0.0,2.0,77,0.00,,,0.00,Wunderground v.1.15,2013-08-17 18:03:00,
2013-08-17 13:08:00,73.4,66.5,30.07,SE,127,0.0,2.0,79,0.00,,,0.00,Wunderground v.1.15,2013-08-17 18:08:00,
2013-08-17 13:14:00,73.6,66.3,30.07,SSW,202,0.0,2.0,78,0.00,,,0.00,Wunderground v.1.15,2013-08-17 18:14:00,
2013-08-17 13:20:00,73.8,66.1,30.07,SE,129,0.0,2.0,77,0.00,,,0.00,Wunderground v.1.15,2013-08-17 18:20:00,
2013-08-17 13:25:00,74.2,66.1,30.07,SW,223,0.0,2.0,76,0.00,,,0.00,Wunderground v.1.15,2013-08-17 18:25:00,
2013-08-17 13:31:00,74.0,64.8,30.06,South,171,0.0,2.0,73,0.00,,,0.00,Wunderground v.1.15,2013-08-17 18:31:00,
2013-08-17 13:36:00,74.0,65.6,30.06,ESE,110,0.0,2.0,75,0.00,,,0.00,Wunderground v.1.15,2013-08-17 18:36:00,
2013-08-17 13:41:00,74.0,66.0,30.06,ESE,110,0.0,2.0,76,0.00,,,0.00,Wunderground v.1.15,2013-08-17 18:41:00,
2013-08-17 13:47:00,74.2,65.8,30.06,ESE,110,0.0,2.0,75,0.00,,,0.00,Wunderground v.1.15,2013-08-17 18:47:00,
2013-08-17 13:52:00,74.4,66.7,30.06,SSW,207,0.0,2.0,77,0.00,,,0.00,Wunderground v.1.15,2013-08-17 18:52:00,
2013-08-17 13:57:00,74.1,65.3,30.06,SSW,212,0.0,2.0,74,0.00,,,0.00,Wunderground v.1.15,2013-08-17 18:57:00,
2013-08-17 14:03:00,74.1,65.7,30.06,SSW,212,0.0,2.0,75,0.00,,,0.00,Wunderground v.1.15,2013-08-17 19:03:00,
2013-08-17 14:08:00,73.8,66.9,30.07,SSW,212,0.0,2.0,79,0.00,,,0.00,Wunderground v.1.15,2013-08-17 19:08:00,
2013-08-17 14:13:00,73.1,66.6,30.06,SSW,212,0.0,2.0,80,0.00,,,0.00,Wunderground v.1.15,2013-08-17 19:13:00,
2013-08-17 14:18:00,72.5,67.0,30.06,SSW,212,0.0,2.0,83,0.00,,,0.00,Wunderground v.1.15,2013-08-17 19:18:00,
2013-08-17 14:24:00,71.9,66.5,30.06,SSW,212,0.0,2.0,83,0.00,,,0.00,Wunderground v.1.15,2013-08-17 19:24:00,
2013-08-17 14:29:00,71.7,66.3,30.06,SSW,212,0.0,2.0,83,0.00,,,0.00,Wunderground v.1.15,2013-08-17 19:29:00,
2013-08-17 14:34:00,71.8,66.7,30.06,SSW,212,0.0,2.0,84,0.00,,,0.00,Wunderground v.1.15,2013-08-17 19:34:00,
2013-08-17 14:40:00,72.0,67.2,30.06,SSW,212,0.0,2.0,85,0.00,,,0.00,Wunderground v.1.15,2013-08-17 19:40:00,
2013-08-17 14:45:00,72.0,66.9,30.06,SSW,212,0.0,2.0,84,0.00,,,0.00,Wunderground v.1.15,2013-08-17 19:45:00,
2013-08-17 14:50:00,72.2,67.1,30.05,SSW,212,0.0,2.0,84,0.00,,,0.00,Wunderground v.1.15,2013-08-17 19:50:00,
2013-08-17 14:55:00,72.1,67.3,30.05,SSW,212,0.0,2.0,85,0.00,,,0.00,Wunderground v.1.15,2013-08-17 19:55:00,
2013-08-17 15:01:00,71.9,66.5,30.05,SSW,212,0.0,2.0,83,0.00,,,0.00,Wunderground v.1.15,2013-08-17 20:01:00,
2013-08-17 15:06:00,72.0,66.6,30.05,SSW,212,0.0,2.0,83,0.00,,,0.00,Wunderground v.1.15,2013-08-17 20:06:00,
2013-08-17 15:11:00,72.3,67.2,30.05,SW,228,0.0,2.0,84,0.00,,,0.00,Wunderground v.1.15,2013-08-17 20:11:00,
2013-08-17 15:17:00,72.2,67.4,30.05,SW,229,0.0,2.0,85,0.00,,,0.00,Wunderground v.1.15,2013-08-17 20:17:00,
2013-08-17 15:22:00,72.4,68.0,30.05,SW,229,0.0,2.0,86,0.00,,,0.00,Wunderground v.1.15,2013-08-17 20:22:00,
2013-08-17 15:28:00,72.3,67.9,30.05,WNW,283,0.0,2.0,86,0.00,,,0.00,Wunderground v.1.15,2013-08-17 20:28:00,
2013-08-17 15:33:00,72.0,66.2,30.05,NNW,348,0.0,2.0,82,0.00,,,0.00,Wunderground v.1.15,2013-08-17 20:33:00,
2013-08-17 15:39:00,72.0,66.9,30.05,NNW,347,0.0,2.0,84,0.00,,,0.00,Wunderground v.1.15,2013-08-17 20:39:00,
2013-08-17 15:44:00,72.2,66.7,30.05,NNW,347,0.0,2.0,83,0.00,,,0.00,Wunderground v.1.15,2013-08-17 20:44:00,
2013-08-17 15:49:00,72.3,67.9,30.05,NNW,347,0.0,2.0,86,0.00,,,0.00,Wunderground v.1.15,2013-08-17 20:49:00,
2013-08-17 15:55:00,72.2,67.8,30.05,NNW,347,0.0,2.0,86,0.00,,,0.00,Wunderground v.1.15,2013-08-17 20:55:00,
2013-08-17 16:00:00,72.1,67.3,30.05,NNW,347,0.0,2.0,85,0.00,,,0.00,Wunderground v.1.15,2013-08-17 21:00:00,
2013-08-17 16:05:00,71.9,67.1,30.05,NNW,347,0.0,2.0,85,0.00,,,0.00,Wunderground v.1.15,2013-08-17 21:05:00,
2013-08-17 16:11:00,71.8,67.0,30.05,NNW,347,0.0,2.0,85,0.00,,,0.00,Wunderground v.1.15,2013-08-17 21:11:00,
2013-08-17 16:16:00,71.6,67.2,30.06,NNW,347,0.0,2.0,86,0.00,,,0.00,Wunderground v.1.15,2013-08-17 21:16:00,
2013-08-17 16:21:00,71.2,66.8,30.05,NNW,348,0.0,2.0,86,0.00,,,0.00,Wunderground v.1.15,2013-08-17 21:21:00,
2013-08-17 16:26:00,71.1,67.0,30.06,NNW,348,0.0,2.0,87,0.00,,,0.00,Wunderground v.1.15,2013-08-17 21:26:00,
2013-08-17 16:32:00,70.9,66.5,30.06,WNW,293,0.0,2.0,86,0.00,,,0.00,Wunderground v.1.15,2013-08-17 21:32:00,
2013-08-17 16:37:00,70.9,66.8,30.06,NE,37,0.0,2.0,87,0.00,,,0.00,Wunderground v.1.15,2013-08-17 21:37:00,
2013-08-17 16:42:00,70.8,66.7,30.06,NE,37,0.0,2.0,87,0.00,,,0.00,Wunderground v.1.15,2013-08-17 21:42:00,
2013-08-17 16:47:00,70.8,66.4,30.06,NNW,336,0.0,2.0,86,0.00,,,0.00,Wunderground v.1.15,2013-08-17 21:47:00,
2013-08-17 16:53:00,70.7,66.6,30.06,NW,308,0.0,2.0,87,0.00,,,0.00,Wunderground v.1.15,2013-08-17 21:53:00,
2013-08-17 16:58:00,70.7,67.0,30.06,NW,308,0.0,2.0,88,0.00,,,0.00,Wunderground v.1.15,2013-08-17 21:58:00,
2013-08-17 17:03:00,70.5,66.4,30.06,North,351,0.0,2.0,87,0.00,,,0.00,Wunderground v.1.15,2013-08-17 22:03:00,
2013-08-17 17:09:00,70.4,66.7,30.06,NNW,345,0.0,2.0,88,0.00,,,0.00,Wunderground v.1.15,2013-08-17 22:09:00,
2013-08-17 17:14:00,70.4,66.3,30.06,NNW,342,0.0,2.0,87,0.00,,,0.00,Wunderground v.1.15,2013-08-17 22:14:00,
2013-08-17 17:19:00,70.4,66.3,30.06,NNW,337,0.0,2.0,87,0.00,,,0.00,Wunderground v.1.15,2013-08-17 22:19:00,
2013-08-17 17:25:00,70.5,66.4,30.05,NNW,338,0.0,2.0,87,0.00,,,0.00,Wunderground v.1.15,2013-08-17 22:25:00,
2013-08-17 17:30:00,70.5,66.4,30.06,NNW,338,0.0,2.0,87,0.00,,,0.00,Wunderground v.1.15,2013-08-17 22:30:00,
2013-08-17 17:36:00,70.6,66.5,30.06,NNW,338,0.0,2.0,87,0.00,,,0.00,Wunderground v.1.15,2013-08-17 22:36:00,
2013-08-17 17:41:00,70.3,66.2,30.06,NNW,338,0.0,2.0,87,0.00,,,0.00,Wunderground v.1.15,2013-08-17 22:41:00,
2013-08-17 17:47:00,70.1,66.4,30.06,NNW,338,0.0,2.0,88,0.00,,,0.00,Wunderground v.1.15,2013-08-17 22:47:00,
2013-08-17 17:52:00,69.8,66.4,30.06,ENE,60,0.0,2.0,89,0.00,,,0.00,Wunderground v.1.15,2013-08-17 22:52:00,
2013-08-17 17:57:00,69.7,66.3,30.06,NE,55,0.0,2.0,89,0.00,,,0.00,Wunderground v.1.15,2013-08-17 22:57:00,
2013-08-17 18:03:00,69.6,66.2,30.06,ENE,78,0.0,3.0,89,0.00,,,0.00,Wunderground v.1.15,2013-08-17 23:03:00,
2013-08-17 18:08:00,69.4,66.3,30.06,NE,54,1.0,3.0,90,0.00,,,0.00,Wunderground v.1.15,2013-08-17 23:08:00,
2013-08-17 18:13:00,69.3,66.2,30.06,NE,49,1.0,2.0,90,0.00,,,0.00,Wunderground v.1.15,2013-08-17 23:13:00,
2013-08-17 18:19:00,69.2,66.5,30.06,North,5,0.0,2.0,91,0.00,,,0.00,Wunderground v.1.15,2013-08-17 23:19:00,
2013-08-17 18:24:00,69.0,66.3,30.06,North,359,0.0,2.0,91,0.00,,,0.00,Wunderground v.1.15,2013-08-17 23:24:00,
2013-08-17 18:29:00,68.8,66.1,30.06,NE,41,1.0,2.0,91,0.00,,,0.00,Wunderground v.1.15,2013-08-17 23:29:00,
2013-08-17 18:34:00,68.6,66.2,30.06,NE,47,1.0,2.0,92,0.00,,,0.00,Wunderground v.1.15,2013-08-17 23:34:00,
2013-08-17 18:40:00,68.3,65.9,30.06,North,3,1.0,2.0,92,0.00,,,0.00,Wunderground v.1.15,2013-08-17 23:40:00,
2013-08-17 18:45:00,68.1,66.0,30.06,East,82,1.0,2.0,93,0.00,,,0.00,Wunderground v.1.15,2013-08-17 23:45:00,
2013-08-17 18:50:00,67.9,65.8,30.06,NE,39,0.0,2.0,93,0.00,,,0.00,Wunderground v.1.15,2013-08-17 23:50:00,
2013-08-17 18:55:00,67.7,65.6,30.06,NE,41,0.0,2.0,93,0.00,,,0.00,Wunderground v.1.15,2013-08-17 23:55:00,
2013-08-17 19:01:00,67.6,65.8,30.06,NNE,17,0.0,2.0,94,0.00,,,0.00,Wunderground v.1.15,2013-08-18 00:01:00,
2013-08-17 19:06:00,67.5,65.7,30.06,ENE,64,0.0,2.0,94,0.00,,,0.00,Wunderground v.1.15,2013-08-18 00:06:00,
2013-08-17 19:11:00,67.4,65.6,30.06,ENE,65,0.0,2.0,94,0.00,,,0.00,Wunderground v.1.15,2013-08-18 00:11:00,
2013-08-17 19:17:00,67.4,65.6,30.07,North,2,0.0,2.0,94,0.00,,,0.00,Wunderground v.1.15,2013-08-18 00:17:00,
2013-08-17 19:22:00,67.3,65.5,30.07,North,351,0.0,2.0,94,0.00,,,0.00,Wunderground v.1.15,2013-08-18 00:22:00,
2013-08-17 19:27:00,67.3,65.5,30.07,NNW,348,0.0,3.0,94,0.00,,,0.00,Wunderground v.1.15,2013-08-18 00:27:00,
2013-08-17 19:33:00,67.2,65.4,30.07,NNE,32,1.0,2.0,94,0.00,,,0.00,Wunderground v.1.15,2013-08-18 00:33:00,
2013-08-17 19:38:00,67.1,65.3,30.07,NNE,29,0.0,2.0,94,0.00,,,0.00,Wunderground v.1.15,2013-08-18 00:38:00,
2013-08-17 19:44:00,67.0,65.5,30.07,NE,37,0.0,2.0,95,0.00,,,0.00,Wunderground v.1.15,2013-08-18 00:44:00,
2013-08-17 19:49:00,66.8,65.3,30.07,NE,43,1.0,1.0,95,0.00,,,0.00,Wunderground v.1.15,2013-08-18 00:49:00,
2013-08-17 19:55:00,66.7,65.2,30.07,NE,43,0.0,2.0,95,0.00,,,0.00,Wunderground v.1.15,2013-08-18 00:55:00,
2013-08-17 20:00:00,66.7,65.5,30.07,North,354,0.0,2.0,96,0.00,,,0.01,Wunderground v.1.15,2013-08-18 01:00:00,
2013-08-17 20:05:00,66.6,65.4,30.07,North,3,0.0,2.0,96,0.00,,,0.01,Wunderground v.1.15,2013-08-18 01:05:00,
2013-08-17 20:11:00,66.5,65.3,30.07,North,2,0.0,2.0,96,0.00,,,0.01,Wunderground v.1.15,2013-08-18 01:11:00,
2013-08-17 20:16:00,66.5,65.3,30.07,North,3,0.0,2.0,96,0.00,,,0.01,Wunderground v.1.15,2013-08-18 01:16:00,
2013-08-17 20:21:00,66.4,65.2,30.07,North,2,0.0,2.0,96,0.00,,,0.01,Wunderground v.1.15,2013-08-18 01:21:00,
2013-08-17 20:27:00,66.4,65.2,30.07,North,2,0.0,2.0,96,0.00,,,0.01,Wunderground v.1.15,2013-08-18 01:27:00,
2013-08-17 20:33:00,66.4,65.2,30.07,North,2,0.0,2.0,96,0.00,,,0.01,Wunderground v.1.15,2013-08-18 01:33:00,
2013-08-17 20:38:00,66.4,65.2,30.07,North,2,0.0,2.0,96,0.00,,,0.01,Wunderground v.1.15,2013-08-18 01:38:00,
2013-08-17 20:44:00,66.3,65.1,30.07,North,1,0.0,2.0,96,0.00,,,0.01,Wunderground v.1.15,2013-08-18 01:44:00,
2013-08-17 20:49:00,66.3,65.1,30.07,North,2,0.0,2.0,96,0.00,,,0.01,Wunderground v.1.15,2013-08-18 01:49:00,
2013-08-17 20:54:00,66.3,65.1,30.08,North,2,0.0,2.0,96,0.00,,,0.01,Wunderground v.1.15,2013-08-18 01:54:00,
2013-08-17 21:00:00,66.4,65.2,30.08,North,2,0.0,2.0,96,0.00,,,0.01,Wunderground v.1.15,2013-08-18 02:00:00,
2013-08-17 21:05:00,66.3,65.1,30.08,North,2,0.0,2.0,96,0.00,,,0.01,Wunderground v.1.15,2013-08-18 02:05:00,
2013-08-17 21:10:00,66.3,65.1,30.08,North,2,0.0,2.0,96,0.00,,,0.01,Wunderground v.1.15,2013-08-18 02:10:00,
2013-08-17 21:16:00,66.3,65.4,30.08,NNW,328,0.0,2.0,97,0.00,,,0.01,Wunderground v.1.15,2013-08-18 02:16:00,
2013-08-17 21:21:00,66.3,65.4,30.09,NW,310,0.0,2.0,97,0.00,,,0.01,Wunderground v.1.15,2013-08-18 02:21:00,
2013-08-17 21:26:00,66.3,65.4,30.09,NNW,337,0.0,2.0,97,0.00,,,0.01,Wunderground v.1.15,2013-08-18 02:26:00,
2013-08-17 21:32:00,66.2,65.3,30.09,NNW,336,0.0,2.0,97,0.00,,,0.01,Wunderground v.1.15,2013-08-18 02:32:00,
2013-08-17 21:37:00,66.2,65.3,30.09,NNW,337,0.0,2.0,97,0.00,,,0.01,Wunderground v.1.15,2013-08-18 02:37:00,
2013-08-17 21:42:00,66.1,65.2,30.09,North,352,0.0,2.0,97,0.00,,,0.01,Wunderground v.1.15,2013-08-18 02:42:00,
2013-08-17 21:48:00,66.1,65.2,30.09,North,352,0.0,2.0,97,0.00,,,0.01,Wunderground v.1.15,2013-08-18 02:48:00,
2013-08-17 21:53:00,66.0,65.1,30.09,North,351,0.0,2.0,97,0.00,,,0.01,Wunderground v.1.15,2013-08-18 02:53:00,
2013-08-17 21:58:00,66.0,65.1,30.09,North,353,0.0,2.0,97,0.00,,,0.01,Wunderground v.1.15,2013-08-18 02:58:00,
2013-08-17 22:04:00,65.9,65.0,30.09,ENE,65,0.0,2.0,97,0.00,,,0.01,Wunderground v.1.15,2013-08-18 03:04:00,
2013-08-17 22:09:00,65.9,65.0,30.09,North,8,1.0,2.0,97,0.00,,,0.01,Wunderground v.1.15,2013-08-18 03:09:00,
2013-08-17 22:14:00,65.9,65.0,30.09,North,1,0.0,2.0,97,0.00,,,0.01,Wunderground v.1.15,2013-08-18 03:14:00,
2013-08-17 22:20:00,66.0,65.1,30.10,North,349,0.0,2.0,97,0.00,,,0.01,Wunderground v.1.15,2013-08-18 03:20:00,
2013-08-17 22:25:00,65.9,65.0,30.10,North,351,0.0,2.0,97,0.00,,,0.01,Wunderground v.1.15,2013-08-18 03:25:00,
2013-08-17 22:30:00,65.8,64.9,30.09,ESE,110,0.0,2.0,97,0.00,,,0.01,Wunderground v.1.15,2013-08-18 03:30:00,
2013-08-17 22:35:00,65.9,65.0,30.10,South,187,0.0,2.0,97,0.00,,,0.01,Wunderground v.1.15,2013-08-18 03:35:00,
2013-08-17 22:41:00,66.0,65.1,30.10,South,186,0.0,2.0,97,0.00,,,0.01,Wunderground v.1.15,2013-08-18 03:41:00,
2013-08-17 22:46:00,65.9,65.0,30.09,East,82,0.0,2.0,97,0.00,,,0.01,Wunderground v.1.15,2013-08-18 03:46:00,
2013-08-17 22:51:00,65.9,65.0,30.09,East,82,0.0,2.0,97,0.00,,,0.01,Wunderground v.1.15,2013-08-18 03:51:00,
2013-08-17 22:57:00,65.8,64.6,30.09,ENE,72,0.0,2.0,96,0.00,,,0.01,Wunderground v.1.15,2013-08-18 03:57:00,
2013-08-17 23:01:00,65.7,64.5,30.10,ENE,62,1.0,2.0,96,0.00,,,0.01,Wunderground v.1.15,2013-08-18 04:01:00,
2013-08-17 23:02:00,65.8,64.6,30.10,ENE,62,1.0,2.0,96,0.00,,,0.01,Wunderground v.1.15,2013-08-18 04:02:00,
2013-08-17 23:03:00,65.8,64.6,30.10,ENE,62,1.0,2.0,96,0.00,,,0.02,Wunderground v.1.15,2013-08-18 04:03:00,
2013-08-17 23:06:00,65.8,64.6,30.09,ENE,62,1.0,2.0,96,0.00,,,0.02,Wunderground v.1.15,2013-08-18 04:06:00,
2013-08-17 23:07:00,65.8,64.6,30.09,ENE,62,0.0,2.0,96,0.00,,,0.02,Wunderground v.1.15,2013-08-18 04:07:00,
2013-08-17 23:13:00,65.7,64.5,30.09,ENE,68,0.0,2.0,96,0.00,,,0.02,Wunderground v.1.15,2013-08-18 04:13:00,
2013-08-17 23:18:00,65.7,64.5,30.10,ENE,69,1.0,2.0,96,0.00,,,0.02,Wunderground v.1.15,2013-08-18 04:18:00,
2013-08-17 23:23:00,65.6,64.4,30.10,ENE,68,1.0,2.0,96,0.00,,,0.02,Wunderground v.1.15,2013-08-18 04:23:00,
2013-08-17 23:28:00,65.6,64.4,30.10,ENE,67,0.0,2.0,96,0.00,,,0.02,Wunderground v.1.15,2013-08-18 04:28:00,
2013-08-17 23:34:00,65.6,64.4,30.10,ENE,69,0.0,2.0,96,0.00,,,0.02,Wunderground v.1.15,2013-08-18 04:34:00,
2013-08-17 23:39:00,65.5,64.3,30.10,ENE,57,0.0,2.0,96,0.00,,,0.02,Wunderground v.1.15,2013-08-18 04:39:00,
2013-08-17 23:44:00,65.6,64.4,30.10,ENE,74,1.0,2.0,96,0.00,,,0.02,Wunderground v.1.15,2013-08-18 04:44:00,
2013-08-17 23:50:00,65.6,64.4,30.10,ENE,72,0.0,2.0,96,0.00,,,0.02,Wunderground v.1.15,2013-08-18 04:50:00,
2013-08-17 23:55:00,65.5,64.3,30.10,ENE,72,0.0,2.0,96,0.00,,,0.02,Wunderground v.1.15,2013-08-18 04:55:00,